sat.trackr.live / text

‹ back to catalog

STARLINK-30387

NORAD 57788 · 2023-134T

PAYLOAD ACTIVE UNKNOWN

§ Identity

Operator
Country
US
Launch date
2023-09-04
Launch site
AFETR
Launch vehicle
Mass (kg)
RCS (m²)

Purposes: comms

External: N2YO · Heavens-Above · Gunter

§ Orbital elements

Epoch: 2026-09-20T00:58:46.431552Z

Period
94.27 min
Inclination
43.0033°
Eccentricity
0.0001223
Mean motion
15.27576827 rev/d
Perigee alt
482.2 km
Apogee alt
483.9 km
Semi-major
6,861.2 km
B*
1.5171e-5
RAAN
165.5071°
Arg perigee
265.9689°
Mean anomaly
94.1023°
Rev number
16,936

§ Raw data

STARLINK-303871 57788U 23134T   26263.04081518  .00000155  00000+0  15171-4 0  99932 57788  43.0033 165.5071 0001223 265.9689  94.1023 15.27576827169362

JSON: /api/v1/satellites/57788 · /tle

For live sub-satellite position, see the globe view (requires WebGL).

§ Visibility from observer

Set your observer location to see the next 7 days of passes ≥ 10°. The values pass through the URL so the page stays shareable.

No JS? Fill the form by hand. The geolocation button needs JavaScript.